Location: Moscow
(55.7500°N, 37.5830°E)
Time: 01:59:54
(UTC+03:00)

Vanguard 3 - Pass Details

Date: 01 December 2021
Orbit: 508 x 3260 km, 33.3° (Epoch: 17 January)

Event Time Altitude Azimuth Distance (km) Brightness Sun altitude
Rises 06:46:54 0° 240° (WSW) 7,182 11.6 -14.1°
Reaches altitude 10° 06:52:57 10° 231° (SW) 5,991 11.2 -13.3°
Maximum altitude 07:06:30 28° 183° (S) 3,883 10.8 -11.5°
Drops below altitude 10° 07:16:16 10° 131° (SE) 4,262 12.2 -10.2°
Sets 07:19:41 0° 120° (ESE) 4,874 13.4 -9.8°
